Location: Newark
(41.6500°N, 71.4833°W)
Time: 15:39:39
(UTC+00:00)

A-11 Canister half - Pass Details

Date: 21 January 2020
Orbit: 1517 x 1683 km, 47.2° (Epoch: 23 February)

Event Time Altitude Azimuth Distance (km) Brightness Sun altitude
Rises 04:04:32 0° 208° (SSW) 4,741 - -65.7°
Reaches altitude 10° 04:07:52 10° 201° (SSW) 3,738 - -66.0°
Maximum altitude 04:16:23 40° 136° (SE) 2,121 - -66.7°
Drops below altitude 10° 04:24:45 10° 71° (ENE) 3,682 - -67.3°
Sets 04:28:00 0° 64° (ENE) 4,664 - -67.5°
